Kremmling, CO

1:49 PM MST on December 11, 2019 (GMT -0700)
Kremmling

Weather History for K20V - September, 2019

Change the Weather History Date:

Monday, September 2, 2019

  Actual Average Record
Temperature  
Mean Temperature 62 °F -  
Max Temperature 88 °F - 91 °F (2017)
Min Temperature 35 °F - 28 °F (2005)
Degree Days  
Heating Degree Days 4    
Month to date heating degree days 5  
Cooling Degree Days 0    
Month to date cooling degree days 0  
Growing Degree Days 12 (Base 50)    
Moisture  
Dew Point 32 °F    
Average Humidity 42    
Maximum Humidity 87    
Minimum Humidity 14    
Precipitation  
Precipitation 0.00 in - 0.16 in (2016)
Snow  
Snow 0.00 in - - ()
Snow Depth 0.00 in    
Sea Level Pressure  
Sea Level Pressure 30.38 in    
Wind  
Wind Speed 1 mph ()    
Max Wind Speed 9 mph    
Max Gust Speed -    
Visibility 10.0 miles    
Events      
T = Trace of Precipitation, MM = Missing Value Source: Averaged Metar Reports

Daily Weather History Graph

Daily Weather History Graph

Search for Another Location

Airport or City:

Astronomy

Sep. 02, 2019 Rise Set
Actual Time 6:34 AM MDT 7:35 PM MDT
Civil Twilight 6:06 AM MDT 8:03 PM MDT
Nautical Twilight 5:33 AM MDT 8:36 PM MDT
Astronomical Twilight 4:58 AM MDT 9:10 PM MDT
Moon 10:19 AM MDT (9/2) 9:58 PM MDT (9/2)
Length of Visible Light 13h 57m
Length of Day
13h 01m
Waxing Crescent, 16% of the Moon is Illuminated
Sep 2
Waxing Crescent
Sep 5
First Quarter
Sep 13
Full
Sep 21
Last Quarter
Sep 28
New

Hourly Weather History & Observations

Time (MDT) Temp. Windchill Dew Point Humidity Pressure Visibility Wind Dir Wind Speed Gust Speed Precip Events Conditions
12:06 AM 50.0 °F - 33.8 °F 54% 30.38 in 10.0 mi East 3.5 mph - N/A   Clear
12:30 AM 48.2 °F - 32.0 °F 54% 30.38 in 10.0 mi Calm Calm - N/A   Clear
12:47 AM 48.2 °F - 37.4 °F 66% 30.39 in 10.0 mi Calm Calm - N/A   Clear
1:06 AM 46.4 °F - 35.6 °F 66% 30.39 in 10.0 mi Calm Calm - N/A   Clear
1:30 AM 48.2 °F - 35.6 °F 62% 30.39 in 10.0 mi Calm Calm - N/A   Clear
1:48 AM 44.6 °F - 33.8 °F 66% 30.40 in 10.0 mi Calm Calm - N/A   Clear
2:06 AM 44.6 °F - 32.0 °F 61% 30.40 in 10.0 mi Calm Calm - N/A   Clear
2:30 AM 44.6 °F - 32.0 °F 61% 30.40 in 10.0 mi Calm Calm - N/A   Clear
3:06 AM 42.8 °F - 33.8 °F 70% 30.41 in 10.0 mi Calm Calm - N/A   Clear
3:30 AM 41.0 °F - 32.0 °F 70% 30.41 in 10.0 mi Calm Calm - N/A   Clear
3:48 AM 41.0 °F - 32.0 °F 70% 30.41 in 10.0 mi Calm Calm - N/A   Clear
4:06 AM 39.2 °F - 32.0 °F 75% 30.41 in 10.0 mi Calm Calm - N/A   Clear
4:30 AM 39.2 °F - 33.8 °F 81% 30.42 in 10.0 mi Calm Calm - N/A   Clear
4:48 AM 39.2 °F - 32.0 °F 75% 30.41 in 10.0 mi Calm Calm - N/A   Clear
5:06 AM 39.2 °F - 32.0 °F 75% 30.42 in 10.0 mi Calm Calm - N/A   Clear
5:30 AM 37.4 °F - 32.0 °F 81% 30.42 in 10.0 mi Calm Calm - N/A   Clear
5:48 AM 37.4 °F - 30.2 °F 75% 30.43 in 10.0 mi Calm Calm - N/A   Clear
6:08 AM 37.4 °F - 32.0 °F 81% 30.44 in 10.0 mi Calm Calm - N/A   Clear
6:26 AM 35.6 °F - 32.0 °F 87% 30.44 in 10.0 mi Calm Calm - N/A   Clear
6:50 AM 35.6 °F - 30.2 °F 81% 30.45 in 10.0 mi Calm Calm - N/A   Clear
7:06 AM 37.4 °F - 32.0 °F 81% 30.45 in 10.0 mi Calm Calm - N/A   Clear
7:30 AM 41.0 °F - 32.0 °F 70% 30.47 in 10.0 mi Calm Calm - N/A   Clear
7:48 AM 41.0 °F 39.0 °F 32.0 °F 70% 30.47 in 10.0 mi WSW 3.5 mph - N/A   Clear
8:06 AM 44.6 °F - 33.8 °F 66% 30.47 in 10.0 mi Calm Calm - N/A   Clear
8:25 AM 48.2 °F - 33.8 °F 58% 30.47 in 10.0 mi Calm Calm - N/A   Clear
8:50 AM 50.0 °F - 33.8 °F 54% 30.47 in 10.0 mi Calm Calm - N/A   Clear
9:06 AM 53.6 °F - 33.8 °F 47% 30.47 in 10.0 mi Calm Calm - N/A   Clear
9:30 AM 55.4 °F - 33.8 °F 44% 30.46 in 10.0 mi Calm Calm - N/A   Clear
9:48 AM 59.0 °F - 32.0 °F 36% 30.45 in 10.0 mi Calm Calm - N/A   Clear
10:06 AM 60.8 °F - 32.0 °F 34% 30.45 in 10.0 mi Calm Calm - N/A   Clear
10:30 AM 62.6 °F - 33.8 °F 34% 30.44 in 10.0 mi Calm Calm - N/A   Clear
10:47 AM 68.0 °F - 35.6 °F 30% 30.44 in 10.0 mi Calm Calm - N/A   Clear
11:06 AM 69.8 °F - 33.8 °F 27% 30.43 in 10.0 mi Calm Calm - N/A   Clear
11:30 AM 73.4 °F - 35.6 °F 25% 30.42 in 10.0 mi Calm Calm - N/A   Clear
11:48 AM 75.2 °F - 35.6 °F 24% 30.41 in 10.0 mi Calm Calm - N/A   Clear
12:06 PM 77.0 °F - 33.8 °F 21% 30.39 in 10.0 mi SSE 4.6 mph - N/A   Clear
12:30 PM 80.6 °F - 32.0 °F 17% 30.38 in 10.0 mi NE 3.5 mph - N/A   Clear
12:48 PM 82.4 °F - 32.0 °F 16% 30.37 in 10.0 mi NE 4.6 mph - N/A   Clear
1:06 PM 82.4 °F - 32.0 °F 16% 30.36 in 10.0 mi NNE 4.6 mph - N/A   Clear
1:48 PM 80.6 °F - 28.4 °F 15% 30.36 in 10.0 mi Calm Calm - N/A   Clear
2:06 PM 80.6 °F - 30.2 °F 16% 30.35 in 10.0 mi NNW 5.8 mph - N/A   Clear
2:30 PM 87.8 °F - 32.0 °F 14% 30.33 in 10.0 mi North 8.1 mph - N/A   Clear
2:48 PM 87.8 °F - 32.0 °F 14% 30.32 in 10.0 mi NNW 4.6 mph - N/A   Clear
3:06 PM 87.8 °F - 32.0 °F 14% 30.32 in 10.0 mi Calm Calm - N/A   Clear
3:30 PM 86.0 °F - 32.0 °F 14% 30.32 in 10.0 mi NNE 4.6 mph - N/A   Clear
3:48 PM 84.2 °F - 30.2 °F 14% 30.32 in 10.0 mi North 9.2 mph - N/A   Clear
4:06 PM 82.4 °F - 30.2 °F 15% 30.32 in 10.0 mi Calm Calm - N/A   Clear
4:30 PM 87.8 °F - 32.0 °F 14% 30.31 in 10.0 mi Calm Calm - N/A   Clear
4:48 PM 87.8 °F - 32.0 °F 14% 30.30 in 10.0 mi NNE 4.6 mph - N/A   Clear
5:06 PM 87.8 °F - 32.0 °F 14% 30.29 in 10.0 mi WSW 5.8 mph - N/A   Clear
5:30 PM 87.8 °F - 32.0 °F 14% 30.29 in 10.0 mi Calm Calm - N/A   Clear
5:48 PM 87.8 °F - 32.0 °F 14% 30.29 in 10.0 mi WNW 3.5 mph - N/A   Clear
6:06 PM 87.8 °F - 32.0 °F 14% 30.28 in 10.0 mi WSW 5.8 mph - N/A   Clear
6:30 PM 86.0 °F - 32.0 °F 14% 30.28 in 10.0 mi Calm Calm - N/A   Clear
6:48 PM 82.4 °F - 28.4 °F 14% 30.28 in 10.0 mi North 5.8 mph - N/A   Clear
7:06 PM 80.6 °F - 28.4 °F 15% 30.29 in 10.0 mi NNW 5.8 mph - N/A   Clear
7:30 PM 75.2 °F - 28.4 °F 18% 30.29 in 10.0 mi NNW 4.6 mph - N/A   Clear
7:48 PM 73.4 °F - 28.4 °F 19% 30.30 in 10.0 mi North 5.8 mph - N/A   Clear
8:06 PM 68.0 °F - 30.2 °F 24% 30.31 in 10.0 mi Calm Calm - N/A   Clear
8:30 PM 68.0 °F - 32.0 °F 26% 30.31 in 10.0 mi Calm Calm - N/A   Clear
8:48 PM 62.6 °F - 32.0 °F 32% 30.32 in 10.0 mi Calm Calm - N/A   Clear
9:06 PM 62.6 °F - 30.2 °F 30% 30.33 in 10.0 mi Calm Calm - N/A   Clear
9:30 PM 59.0 °F - 32.0 °F 36% 30.34 in 10.0 mi Calm Calm - N/A   Clear
9:48 PM 55.4 °F - 28.4 °F 36% 30.34 in 10.0 mi Calm Calm - N/A   Clear
10:06 PM 59.0 °F - 30.2 °F 34% 30.35 in 10.0 mi SE 3.5 mph - N/A   Clear
10:30 PM 55.4 °F - 30.2 °F 38% 30.36 in 10.0 mi Calm Calm - N/A   Clear
10:48 PM 53.6 °F - 30.2 °F 41% 30.36 in 10.0 mi Calm Calm - N/A   Clear
11:06 PM 51.8 °F - 32.0 °F 47% 30.36 in 10.0 mi Calm Calm - N/A   Clear
11:30 PM 51.8 °F - 32.0 °F 47% 30.36 in 10.0 mi ESE 3.5 mph - N/A   Clear
11:48 PM 48.2 °F - 33.8 °F 58% 30.36 in 10.0 mi Calm Calm - N/A   Clear